| time (UTC) | temp C | wind direction | speed KPH | gust KPH | rain 1hr cm | rain 24hr cm | rain mn cm | humidity % | barometer mb |
| 20260510190516 | 27 | 111 | 1.6 | 8.0 | 0.00 | 0.15 | 0.03 | 72 | 1013.4 |
| 20260510190016 | 27 | 165 | 1.6 | 9.7 | 0.00 | 0.15 | 0.03 | 72 | 1013.4 |
| 20260510185513 | 27 | 156 | 3.2 | 9.7 | 0.00 | 0.15 | 0.03 | 70 | 1013.5 |
| 20260510185013 | 27 | 182 | 1.6 | 4.8 | 0.00 | 0.15 | 0.03 | 72 | 1013.6 |
| 20260510184511 | 27 | 207 | 1.6 | 8.0 | 0.00 | 0.15 | 0.03 | 72 | 1013.8 |
| 20260510184011 | 27 | 146 | 1.6 | 8.0 | 0.00 | 0.15 | 0.03 | 70 | 1013.9 |
| 20260510183510 | 27 | 206 | 3.2 | 6.4 | 0.00 | 0.15 | 0.03 | 71 | 1013.9 |
| 20260510183010 | 27 | 93 | 3.2 | 9.7 | 0.00 | 0.15 | 0.03 | 70 | 1014.0 |
| 20260510182508 | 27 | 190 | 3.2 | 8.0 | 0.00 | 0.15 | 0.03 | 72 | 1014.1 |
| 20260510182009 | 27 | 240 | 1.6 | 4.8 | 0.00 | 0.15 | 0.03 | 71 | 1014.1 |
| 20260510181509 | 27 | 257 | 1.6 | 12.9 | 0.00 | 0.15 | 0.03 | 72 | 1014.2 |
| 20260510181008 | 27 | 355 | 6.4 | 12.9 | 0.00 | 0.15 | 0.03 | 71 | 1014.3 |
| 20260510180506 | 27 | 330 | 1.6 | 9.7 | 0.00 | 0.15 | 0.03 | 73 | 1014.3 |
| 20260510180005 | 26 | 165 | 0.0 | 9.7 | 0.00 | 0.15 | 0.03 | 71 | 1014.4 |
| 20260510175505 | 26 | 188 | 1.6 | 8.0 | 0.00 | 0.15 | 0.03 | 72 | 1014.4 |
| 20260510175004 | 26 | 51 | 1.6 | 8.0 | 0.00 | 0.15 | 0.03 | 74 | 1014.4 |
| 20260510174502 | 26 | 235 | 1.6 | 6.4 | 0.00 | 0.15 | 0.03 | 74 | 1014.5 |
| 20260510174004 | 26 | 204 | 1.6 | 6.4 | 0.00 | 0.15 | 0.03 | 72 | 1014.5 |
| 20260510173501 | 26 | 5 | 0.0 | 9.7 | 0.00 | 0.15 | 0.03 | 74 | 1014.6 |
| 20260510173001 | 25 | 29 | 4.8 | 9.7 | 0.00 | 0.15 | 0.03 | 75 | 1014.6 |
| 20260510172501 | 26 | 340 | 3.2 | 8.0 | 0.00 | 0.15 | 0.03 | 74 | 1014.7 |
| 20260510172100 | 26 | 350 | 3.2 | 8.0 | 0.00 | 0.15 | 0.03 | 73 | 1014.7 |
| 20260510171609 | 26 | 19 | 3.2 | 6.4 | 0.00 | 0.15 | 0.03 | 73 | 1014.7 |
| 20260510171104 | 26 | 331 | 1.6 | 6.4 | 0.00 | 0.15 | 0.03 | 75 | 1014.8 |
| 20260510170600 | 26 | 164 | 0.0 | 6.4 | 0.00 | 0.15 | 0.03 | 74 | 1014.8 |
| 20260510170058 | 26 | 78 | 3.2 | 9.7 | 0.00 | 0.15 | 0.03 | 75 | 1014.8 |
| 20260510165557 | 26 | 61 | 4.8 | 9.7 | 0.00 | 0.58 | 0.03 | 76 | 1014.8 |
| 20260510165056 | 26 | 73 | 1.6 | 8.0 | 0.00 | 0.58 | 0.03 | 77 | 1014.8 |
| 20260510164557 | 25 | 78 | 4.8 | 8.0 | 0.00 | 0.58 | 0.03 | 76 | 1014.8 |
| 20260510164054 | 25 | 306 | 0.0 | 6.4 | 0.00 | 0.58 | 0.03 | 75 | 1014.8 |
| 20260510163554 | 25 | 282 | 1.6 | 6.4 | 0.00 | 0.58 | 0.03 | 74 | 1014.8 |
| 20260510163058 | 25 | 17 | 3.2 | 6.4 | 0.00 | 0.58 | 0.03 | 76 | 1014.8 |
| 20260510162553 | 25 | 161 | 0.0 | 6.4 | 0.00 | 0.58 | 0.03 | 75 | 1014.8 |
| 20260510162052 | 25 | 108 | 1.6 | 6.4 | 0.00 | 0.58 | 0.03 | 76 | 1014.7 |
| 20260510161551 | 25 | 65 | 1.6 | 9.7 | 0.00 | 0.58 | 0.03 | 79 | 1014.8 |
| 20260510161050 | 25 | 63 | 6.4 | 9.7 | 0.00 | 0.58 | 0.03 | 79 | 1014.8 |
| 20260510160549 | 25 | 324 | 1.6 | 9.7 | 0.00 | 0.58 | 0.03 | 80 | 1014.8 |
| 20260510160048 | 25 | 5 | 0.0 | 6.4 | 0.00 | 0.58 | 0.03 | 83 | 1014.7 |
| 20260510155550 | 24 | 94 | 3.2 | 6.4 | 0.00 | 1.04 | 0.03 | 82 | 1014.7 |
| 20260510155045 | 24 | 35 | 1.6 | 6.4 | 0.00 | 1.04 | 0.03 | 82 | 1014.6 |
| 20260510154551 | 24 | 327 | 1.6 | 6.4 | 0.00 | 1.04 | 0.03 | 84 | 1014.6 |
| 20260510154045 | 23 | 33 | 0.0 | 9.7 | 0.00 | 1.04 | 0.03 | 84 | 1014.6 |
| 20260510153543 | 24 | 73 | 6.4 | 9.7 | 0.00 | 1.04 | 0.03 | 82 | 1014.7 |
| 20260510153042 | 23 | 28 | 1.6 | 12.9 | 0.00 | 1.04 | 0.03 | 83 | 1014.7 |
| 20260510152543 | 23 | 42 | 1.6 | 12.9 | 0.00 | 1.04 | 0.03 | 84 | 1014.7 |
| 20260510152041 | 23 | 98 | 4.8 | 12.9 | 0.00 | 1.04 | 0.03 | 85 | 1014.8 |
| 20260510151542 | 23 | 81 | 1.6 | 6.4 | 0.00 | 1.04 | 0.03 | 87 | 1014.7 |
| 20260510151037 | 23 | 180 | 0.0 | 6.4 | 0.00 | 1.04 | 0.03 | 88 | 1014.8 |
| 20260510150535 | 23 | 47 | 1.6 | 8.0 | 0.00 | 1.04 | 0.03 | 88 | 1014.8 |
| 20260510150035 | 22 | 69 | 1.6 | 8.0 | 0.00 | 1.04 | 0.03 | 89 | 1014.8 |
| 20260510145533 | 22 | 90 | 1.6 | 8.0 | 0.00 | 1.68 | 0.03 | 90 | 1014.9 |
| 20260510145030 | 22 | 102 | 1.6 | 6.4 | 0.00 | 1.68 | 0.03 | 91 | 1014.9 |
| 20260510144533 | 22 | 56 | 1.6 | 8.0 | 0.00 | 1.68 | 0.03 | 92 | 1014.9 |
| 20260510144028 | 21 | 53 | 3.2 | 8.0 | 0.00 | 1.68 | 0.03 | 94 | 1014.9 |
| 20260510143526 | 21 | 46 | 0.0 | 8.0 | 0.00 | 1.68 | 0.03 | 95 | 1015.0 |
| 20260510143025 | 21 | 44 | 1.6 | 8.0 | 0.00 | 1.68 | 0.03 | 96 | 1015.1 |
| 20260510142524 | 21 | 48 | 3.2 | 6.4 | 0.00 | 1.68 | 0.03 | 96 | 1015.1 |
| 20260510142024 | 21 | 9 | 1.6 | 4.8 | 0.00 | 1.68 | 0.03 | 96 | 1015.1 |
| 20260510141523 | 21 | 114 | 1.6 | 4.8 | 0.00 | 1.68 | 0.03 | 97 | 1015.1 |
| 20260510141023 | 20 | 125 | 0.0 | 3.2 | 0.00 | 1.68 | 0.03 | 97 | 1015.0 |
| 20260510140521 | 20 | 125 | 0.0 | 4.8 | 0.00 | 1.68 | 0.03 | 97 | 1015.0 |
| 20260510140019 | 20 | 129 | 0.0 | 4.8 | 0.00 | 1.68 | 0.03 | 97 | 1014.9 |
| 20260510135519 | 20 | 101 | 3.2 | 4.8 | 0.00 | 1.70 | 0.03 | 97 | 1014.9 |
| 20260510135018 | 20 | 65 | 0.0 | 3.2 | 0.00 | 1.70 | 0.03 | 97 | 1014.7 |
| 20260510134517 | 20 | 65 | 0.0 | 3.2 | 0.00 | 1.70 | 0.03 | 97 | 1014.8 |
| 20260510134017 | 20 | 65 | 0.0 | 3.2 | 0.00 | 1.70 | 0.03 | 97 | 1014.8 |
| 20260510133515 | 20 | 126 | 0.0 | 3.2 | 0.00 | 1.70 | 0.03 | 97 | 1014.8 |
| 20260510133015 | 19 | 41 | 0.0 | 3.2 | 0.00 | 1.70 | 0.03 | 97 | 1014.8 |
| 20260510132515 | 19 | 41 | 1.6 | 4.8 | 0.00 | 1.70 | 0.03 | 97 | 1014.7 |
| 20260510132015 | 19 | 41 | 1.6 | 6.4 | 0.00 | 1.70 | 0.03 | 97 | 1014.8 |
| 20260510131527 | 19 | 88 | 1.6 | 4.8 | 0.00 | 1.70 | 0.03 | 97 | 1014.8 |
| 20260510131011 | 19 | 101 | 1.6 | 6.4 | 0.00 | 1.70 | 0.03 | 97 | 1014.6 |
| 20260510130514 | 18 | 55 | 3.2 | 6.4 | 0.00 | 1.70 | 0.03 | 97 | 1014.7 |
| 20260510130010 | 18 | 44 | 1.6 | 4.8 | 0.00 | 1.70 | 0.03 | 97 | 1014.6 |
| 20260510125509 | 18 | 25 | 1.6 | 6.4 | 0.00 | 1.75 | 0.03 | 97 | 1014.6 |
| 20260510125007 | 18 | 42 | 3.2 | 6.4 | 0.00 | 1.75 | 0.03 | 97 | 1014.5 |
| 20260510124509 | 18 | 39 | 3.2 | 4.8 | 0.00 | 1.75 | 0.03 | 97 | 1014.4 |
| 20260510124007 | 18 | 71 | 1.6 | 4.8 | 0.00 | 1.75 | 0.03 | 97 | 1014.3 |
| 20260510123507 | 18 | 63 | 1.6 | 8.0 | 0.00 | 1.75 | 0.03 | 97 | 1014.2 |
| 20260510123007 | 18 | 62 | 3.2 | 8.0 | 0.00 | 1.75 | 0.03 | 97 | 1014.2 |
| 20260510122508 | 18 | 63 | 1.6 | 4.8 | 0.00 | 1.75 | 0.03 | 97 | 1014.1 |
| 20260510122003 | 18 | 36 | 1.6 | 3.2 | 0.00 | 1.75 | 0.03 | 97 | 1014.0 |
| 20260510121502 | 18 | 36 | 0.0 | 3.2 | 0.00 | 1.75 | 0.03 | 97 | 1013.9 |
| 20260510121002 | 18 | 36 | 0.0 | 3.2 | 0.00 | 1.75 | 0.03 | 97 | 1013.8 |
| 20260510120601 | 18 | 36 | 0.0 | 1.6 | 0.00 | 1.75 | 0.03 | 97 | 1013.6 |
| 20260510120058 | 18 | 36 | 1.6 | 3.2 | 0.00 | 1.75 | 0.03 | 97 | 1013.6 |
| 20260510115556 | 18 | 36 | 0.0 | 3.2 | 0.00 | 1.78 | 0.03 | 97 | 1013.5 |
| 20260510115056 | 18 | 36 | 0.0 | 3.2 | 0.00 | 1.78 | 0.03 | 97 | 1013.4 |
| 20260510114554 | 17 | 36 | 0.0 | 3.2 | 0.00 | 1.78 | 0.03 | 97 | 1013.3 |
| 20260510114052 | 17 | 36 | 0.0 | 3.2 | 0.00 | 1.78 | 0.03 | 97 | 1013.2 |
| 20260510113552 | 17 | 36 | 0.0 | 3.2 | 0.00 | 1.78 | 0.03 | 97 | 1013.1 |
| 20260510113058 | 17 | 36 | 0.0 | 3.2 | 0.00 | 1.78 | 0.03 | 96 | 1013.2 |
| 20260510112549 | 17 | 36 | 1.6 | 3.2 | 0.00 | 1.78 | 0.03 | 97 | 1013.1 |
| 20260510112048 | 17 | 36 | 0.0 | 3.2 | 0.00 | 1.78 | 0.03 | 97 | 1013.0 |
| 20260510111547 | 17 | 36 | 0.0 | 3.2 | 0.00 | 1.78 | 0.03 | 96 | 1013.1 |
| 20260510111045 | 17 | 36 | 0.0 | 1.6 | 0.00 | 1.78 | 0.03 | 96 | 1013.0 |
| 20260510110544 | 18 | 36 | 0.0 | 3.2 | 0.03 | 1.78 | 0.03 | 96 | 1012.9 |
| 20260510110043 | 18 | 36 | 0.0 | 3.2 | 0.03 | 1.78 | 0.03 | 96 | 1012.8 |
| 20260510105542 | 18 | 36 | 0.0 | 3.2 | 0.03 | 1.78 | 0.03 | 96 | 1012.7 |
| 20260510105042 | 18 | 36 | 0.0 | 3.2 | 0.03 | 1.78 | 0.03 | 96 | 1012.7 |
| 20260510104542 | 18 | 36 | 0.0 | 3.2 | 0.03 | 1.78 | 0.03 | 96 | 1012.7 |
| 20260510104040 | 18 | 36 | 0.0 | 3.2 | 0.03 | 1.78 | 0.03 | 96 | 1012.6 |
| 20260510103540 | 18 | 36 | 0.0 | 3.2 | 0.03 | 1.78 | 0.03 | 96 | 1012.5 |
| 20260510103039 | 18 | 36 | 0.0 | 3.2 | 0.03 | 1.78 | 0.03 | 96 | 1012.4 |
| 20260510102540 | 18 | 36 | 0.0 | 3.2 | 0.03 | 1.78 | 0.03 | 96 | 1012.4 |
| 20260510102038 | 18 | 36 | 0.0 | 1.6 | 0.03 | 1.78 | 0.03 | 96 | 1012.4 |
| 20260510101538 | 18 | 36 | 0.0 | 1.6 | 0.03 | 1.78 | 0.03 | 96 | 1012.3 |
| 20260510101038 | 18 | 36 | 0.0 | 3.2 | 0.03 | 1.78 | 0.03 | 96 | 1012.4 |
| 20260510100537 | 18 | 36 | 0.0 | 3.2 | 0.00 | 1.75 | 0.00 | 96 | 1012.3 |
| 20260510100035 | 18 | 36 | 0.0 | 3.2 | 0.00 | 1.75 | 0.00 | 96 | 1012.2 |
| 20260510095534 | 18 | 36 | 0.0 | 1.6 | 0.00 | 1.75 | 0.00 | 96 | 1012.1 |
| 20260510095033 | 18 | 36 | 0.0 | 0.0 | 0.00 | 1.75 | 0.00 | 96 | 1012.0 |
| 20260510094536 | 18 | 36 | 0.0 | 3.2 | 0.00 | 1.75 | 0.00 | 96 | 1011.9 |
| 20260510094032 | 18 | 36 | 0.0 | 3.2 | 0.00 | 1.75 | 0.00 | 96 | 1011.7 |
| 20260510093532 | 18 | 36 | 0.0 | 3.2 | 0.00 | 1.75 | 0.00 | 96 | 1011.7 |
| 20260510093032 | 18 | 36 | 0.0 | 0.0 | 0.00 | 1.75 | 0.00 | 96 | 1011.6 |
| 20260510092532 | 18 | 36 | 0.0 | 3.2 | 0.00 | 1.75 | 0.00 | 96 | 1011.7 |
| 20260510092031 | 18 | 36 | 0.0 | 3.2 | 0.00 | 1.75 | 0.00 | 96 | 1011.6 |
| 20260510091532 | 18 | 36 | 0.0 | 3.2 | 0.00 | 1.75 | 0.00 | 96 | 1011.6 |
| 20260510091030 | 18 | 36 | 0.0 | 3.2 | 0.00 | 1.75 | 0.00 | 96 | 1011.7 |
| 20260510090530 | 18 | 36 | 0.0 | 3.2 | 0.00 | 1.75 | 0.00 | 96 | 1011.5 |
| 20260510090029 | 18 | 36 | 0.0 | 3.2 | 0.00 | 1.75 | 0.00 | 96 | 1011.4 |
| 20260510085528 | 18 | 36 | 0.0 | 3.2 | 0.00 | 1.75 | 0.00 | 96 | 1011.4 |
| 20260510085028 | 18 | 36 | 0.0 | 3.2 | 0.00 | 1.75 | 0.00 | 96 | 1011.4 |
| 20260510084533 | 18 | 36 | 0.0 | 4.8 | 0.00 | 1.75 | 0.00 | 96 | 1011.5 |
| 20260510084028 | 18 | 36 | 1.6 | 4.8 | 0.00 | 1.75 | 0.00 | 96 | 1011.4 |
| 20260510083528 | 18 | 53 | 1.6 | 3.2 | 0.00 | 1.75 | 0.00 | 96 | 1011.3 |
| 20260510083028 | 18 | 318 | 0.0 | 3.2 | 0.00 | 1.75 | 0.00 | 96 | 1011.4 |
| 20260510082526 | 18 | 318 | 0.0 | 3.2 | 0.00 | 1.75 | 0.00 | 96 | 1011.3 |
| 20260510082026 | 18 | 318 | 0.0 | 3.2 | 0.00 | 1.75 | 0.00 | 96 | 1011.2 |
| 20260510081526 | 18 | 346 | 0.0 | 3.2 | 0.00 | 1.75 | 0.00 | 96 | 1011.2 |
| 20260510081026 | 18 | 346 | 0.0 | 3.2 | 0.00 | 1.75 | 0.00 | 96 | 1011.0 |
| 20260510080526 | 18 | 346 | 0.0 | 3.2 | 0.00 | 1.75 | 0.00 | 96 | 1010.8 |
| 20260510080031 | 18 | 346 | 0.0 | 1.6 | 0.00 | 1.75 | 0.00 | 96 | 1010.8 |
| 20260510075525 | 18 | 346 | 0.0 | 3.2 | 0.00 | 1.75 | 0.00 | 96 | 1010.8 |
| 20260510075025 | 18 | 71 | 1.6 | 1.6 | 0.00 | 1.75 | 0.00 | 96 | 1010.8 |
| 20260510074525 | 18 | 71 | 0.0 | 3.2 | 0.00 | 1.75 | 0.00 | 96 | 1010.8 |
| 20260510074025 | 18 | 71 | 0.0 | 3.2 | 0.00 | 1.75 | 0.00 | 96 | 1010.8 |
| 20260510073528 | 18 | 71 | 0.0 | 3.2 | 0.00 | 1.75 | 0.00 | 96 | 1010.7 |
| 20260510073028 | 18 | 71 | 0.0 | 3.2 | 0.00 | 1.75 | 0.00 | 96 | 1010.8 |
| 20260510072524 | 18 | 71 | 0.0 | 3.2 | 0.00 | 1.75 | 0.00 | 96 | 1010.8 |
| 20260510072025 | 18 | 71 | 0.0 | 1.6 | 0.00 | 1.75 | 0.00 | 96 | 1010.6 |
| 20260510071526 | 18 | 71 | 0.0 | 3.2 | 0.00 | 1.75 | 0.00 | 96 | 1010.8 |
| 20260510071023 | 19 | 71 | 0.0 | 3.2 | 0.00 | 1.75 | 0.00 | 96 | 1010.7 |
| 20260510070523 | 19 | 71 | 0.0 | 3.2 | 0.00 | 1.75 | 0.00 | 96 | 1010.6 |
| 20260510070023 | 19 | 71 | 0.0 | 3.2 | 0.00 | 1.75 | 0.00 | 96 | 1010.4 |
| 20260510065522 | 19 | 71 | 0.0 | 3.2 | 0.00 | 1.78 | 0.00 | 96 | 1010.5 |
| 20260510065022 | 19 | 71 | 0.0 | 3.2 | 0.00 | 1.78 | 0.00 | 96 | 1010.6 |
| 20260510064538 | 19 | 71 | 0.0 | 4.8 | 0.00 | 1.78 | 0.00 | 96 | 1010.6 |
| 20260510064021 | 19 | 71 | 1.6 | 4.8 | 0.00 | 1.78 | 0.00 | 96 | 1010.6 |
| 20260510063521 | 19 | 91 | 0.0 | 4.8 | 0.00 | 1.78 | 0.00 | 96 | 1010.6 |
| 20260510063025 | 19 | 117 | 0.0 | 4.8 | 0.00 | 1.78 | 0.00 | 96 | 1010.6 |
| 20260510062518 | 19 | 173 | 1.6 | 4.8 | 0.00 | 1.78 | 0.00 | 96 | 1010.7 |
| 20260510062018 | 18 | 168 | 0.0 | 3.2 | 0.00 | 1.78 | 0.00 | 96 | 1010.8 |
| 20260510061517 | 18 | 83 | 0.0 | 3.2 | 0.00 | 1.78 | 0.00 | 96 | 1011.0 |
| 20260510061017 | 18 | 311 | 0.0 | 3.2 | 0.00 | 1.78 | 0.00 | 96 | 1011.1 |
| 20260510060516 | 18 | 311 | 0.0 | 1.6 | 0.00 | 1.78 | 0.00 | 96 | 1011.1 |
| 20260510060015 | 18 | 311 | 0.0 | 0.0 | 0.00 | 1.78 | 0.00 | 96 | 1011.3 |
| 20260510055514 | 18 | 311 | 0.0 | 0.0 | 0.00 | 1.78 | 0.00 | 96 | 1011.3 |
| 20260510055014 | 18 | 311 | 0.0 | 3.2 | 0.00 | 1.78 | 0.00 | 96 | 1011.3 |
| 20260510054515 | 18 | 311 | 0.0 | 3.2 | 0.00 | 1.78 | 0.00 | 96 | 1011.3 |
| 20260510054013 | 18 | 310 | 0.0 | 1.6 | 0.00 | 1.78 | 0.00 | 96 | 1011.3 |
| 20260510053515 | 18 | 311 | 0.0 | 0.0 | 0.00 | 1.78 | 0.00 | 96 | 1011.5 |
| 20260510053031 | 19 | 311 | 0.0 | 3.2 | 0.00 | 1.78 | 0.00 | 96 | 1011.5 |
| 20260510052510 | 19 | 310 | 0.0 | 3.2 | 0.00 | 1.78 | 0.00 | 96 | 1011.7 |
| 20260510052010 | 19 | 310 | 0.0 | 3.2 | 0.00 | 1.78 | 0.00 | 96 | 1011.5 |
| 20260510051509 | 19 | 311 | 0.0 | 3.2 | 0.00 | 1.78 | 0.00 | 96 | 1011.6 |
| 20260510051012 | 19 | 310 | 0.0 | 1.6 | 0.00 | 1.78 | 0.00 | 96 | 1011.8 |
| 20260510050507 | 19 | 311 | 0.0 | 1.6 | 0.00 | 1.78 | 0.00 | 96 | 1011.7 |
| 20260510050007 | 19 | 311 | 0.0 | 3.2 | 0.00 | 1.78 | 0.00 | 96 | 1011.6 |
| 20260510045506 | 19 | 310 | 0.0 | 3.2 | 0.00 | 1.78 | 1.78 | 96 | 1011.5 |
| 20260510045007 | 19 | 310 | 0.0 | 3.2 | 0.00 | 1.78 | 1.78 | 96 | 1011.5 |
| 20260510044506 | 20 | 311 | 1.6 | 4.8 | 0.00 | 1.78 | 1.78 | 96 | 1011.4 |
| 20260510044006 | 20 | 107 | 0.0 | 6.4 | 0.00 | 1.78 | 1.78 | 96 | 1011.2 |
| 20260510043506 | 20 | 101 | 0.0 | 6.4 | 0.00 | 1.78 | 1.78 | 96 | 1011.1 |
| 20260510043006 | 20 | 90 | 1.6 | 6.4 | 0.00 | 1.78 | 1.78 | 96 | 1011.3 |
| 20260510042506 | 20 | 80 | 0.0 | 3.2 | 0.00 | 1.78 | 1.78 | 96 | 1011.7 |
| 20260510042005 | 20 | 80 | 0.0 | 3.2 | 0.00 | 1.78 | 1.78 | 96 | 1011.9 |
| 20260510041505 | 20 | 80 | 0.0 | 1.6 | 0.00 | 1.78 | 1.78 | 96 | 1012.0 |
| 20260510041005 | 20 | 80 | 0.0 | 1.6 | 0.00 | 1.78 | 1.78 | 96 | 1011.9 |
| 20260510040505 | 20 | 80 | 0.0 | 3.2 | 0.00 | 1.78 | 1.78 | 96 | 1011.8 |
| 20260510040004 | 20 | 80 | 0.0 | 3.2 | 0.00 | 1.78 | 1.78 | 96 | 1011.9 |
| 20260510035503 | 20 | 80 | 0.0 | 3.2 | 0.00 | 1.80 | 1.78 | 96 | 1012.1 |
| 20260510035005 | 20 | 80 | 0.0 | 3.2 | 0.00 | 1.80 | 1.78 | 96 | 1011.9 |
| 20260510034503 | 20 | 80 | 0.0 | 3.2 | 0.00 | 1.80 | 1.78 | 96 | 1011.9 |
| 20260510034004 | 20 | 80 | 0.0 | 3.2 | 0.03 | 1.80 | 1.78 | 96 | 1012.1 |
| 20260510033503 | 20 | 80 | 0.0 | 3.2 | 0.03 | 1.80 | 1.78 | 96 | 1012.2 |
| 20260510033003 | 20 | 80 | 0.0 | 3.2 | 0.03 | 1.80 | 1.78 | 96 | 1012.2 |
| 20260510032502 | 20 | 80 | 0.0 | 3.2 | 0.03 | 1.80 | 1.78 | 96 | 1012.0 |
| 20260510032004 | 20 | 80 | 0.0 | 3.2 | 0.03 | 1.80 | 1.78 | 96 | 1011.9 |
| 20260510031503 | 20 | 80 | 0.0 | 3.2 | 0.03 | 1.80 | 1.78 | 96 | 1011.8 |
| 20260510031003 | 20 | 80 | 0.0 | 3.2 | 0.03 | 1.80 | 1.78 | 96 | 1011.8 |
| 20260510030502 | 20 | 80 | 0.0 | 43.5 | 0.03 | 1.80 | 1.78 | 96 | 1011.8 |
| 20260510030003 | 20 | 80 | 0.0 | 1.6 | 0.03 | 1.80 | 1.78 | 96 | 1011.6 |
| 20260510025502 | 20 | 80 | 0.0 | 1.6 | 0.03 | 1.83 | 1.78 | 96 | 1011.6 |
| 20260510025001 | 20 | 80 | 0.0 | 3.2 | 0.03 | 1.83 | 1.78 | 96 | 1011.7 |
| 20260510024501 | 20 | 80 | 0.0 | 3.2 | 0.03 | 1.83 | 1.78 | 96 | 1011.5 |
| 20260510024001 | 20 | 80 | 0.0 | 4.8 | 0.00 | 1.80 | 1.75 | 96 | 1011.4 |
| 20260510023500 | 20 | 80 | 1.6 | 4.8 | 0.00 | 1.80 | 1.75 | 96 | 1011.2 |
| 20260510023001 | 20 | 88 | 1.6 | 3.2 | 0.00 | 1.80 | 1.75 | 96 | 1011.1 |
| 20260510022501 | 20 | 54 | 0.0 | 3.2 | 0.00 | 1.80 | 1.75 | 96 | 1011.3 |
| 20260510022100 | 20 | 54 | 0.0 | 3.2 | 0.00 | 1.80 | 1.75 | 96 | 1011.1 |
| 20260510021605 | 20 | 54 | 0.0 | 3.2 | 0.00 | 1.80 | 1.75 | 96 | 1011.3 |
| 20260510021100 | 20 | 26 | 0.0 | 3.2 | 0.00 | 1.80 | 1.75 | 96 | 1011.4 |
| 20260510020600 | 20 | 360 | 1.6 | 3.2 | 0.00 | 1.80 | 1.75 | 96 | 1011.5 |
| 20260510020059 | 20 | 360 | 0.0 | 3.2 | 0.00 | 1.80 | 1.75 | 96 | 1011.4 |
| 20260510015559 | 20 | 29 | 0.0 | 3.2 | 0.00 | 1.91 | 1.75 | 96 | 1011.3 |
| 20260510015058 | 20 | 231 | 0.0 | 3.2 | 0.03 | 1.91 | 1.75 | 96 | 1011.1 |
| 20260510014605 | 20 | 231 | 0.0 | 4.8 | 0.03 | 1.91 | 1.75 | 96 | 1011.1 |
| 20260510014058 | 20 | 109 | 0.0 | 4.8 | 0.03 | 1.91 | 1.75 | 96 | 1011.1 |
| 20260510013605 | 20 | 276 | 0.0 | 3.2 | 0.03 | 1.91 | 1.75 | 96 | 1011.2 |
| 20260510013128 | 20 | 276 | 0.0 | 3.2 | 0.03 | 1.91 | 1.75 | 96 | 1011.3 |
| 20260510012558 | 20 | 276 | 0.0 | 3.2 | 0.03 | 1.91 | 1.75 | 96 | 1011.4 |
| 20260510012058 | 20 | 276 | 0.0 | 3.2 | 0.03 | 1.91 | 1.75 | 96 | 1011.4 |
| 20260510011558 | 20 | 276 | 0.0 | 3.2 | 0.03 | 1.91 | 1.75 | 95 | 1011.4 |
| 20260510011058 | 20 | 276 | 0.0 | 3.2 | 0.03 | 1.91 | 1.75 | 96 | 1011.5 |
| 20260510010557 | 20 | 13 | 0.0 | 3.2 | 0.03 | 1.91 | 1.75 | 95 | 1011.5 |
| 20260510010057 | 20 | 13 | 0.0 | 3.2 | 0.03 | 1.91 | 1.75 | 95 | 1011.5 |
| 20260510005556 | 20 | 13 | 0.0 | 3.2 | 0.03 | 1.93 | 1.75 | 95 | 1011.6 |
| 20260510005058 | 20 | 13 | 0.0 | 1.6 | 0.00 | 1.91 | 1.75 | 95 | 1011.7 |
| 20260510004556 | 20 | 13 | 0.0 | 3.2 | 0.00 | 1.91 | 1.75 | 95 | 1011.7 |
| 20260510004055 | 20 | 13 | 0.0 | 3.2 | 0.03 | 1.91 | 1.75 | 95 | 1011.7 |
| 20260510003556 | 20 | 302 | 0.0 | 3.2 | 0.03 | 1.91 | 1.75 | 95 | 1011.6 |
| 20260510003105 | 20 | 5 | 0.0 | 3.2 | 0.03 | 1.91 | 1.75 | 95 | 1011.3 |
| 20260510002558 | 20 | 22 | 0.0 | 4.8 | 0.05 | 1.91 | 1.75 | 95 | 1011.2 |
| 20260510002100 | 20 | 49 | 1.6 | 4.8 | 0.05 | 1.91 | 1.75 | 95 | 1010.8 |
| 20260510001555 | 20 | 56 | 1.6 | 4.8 | 0.05 | 1.91 | 1.75 | 95 | 1010.3 |
| 20260510001056 | 20 | 82 | 3.2 | 4.8 | 0.05 | 1.91 | 1.75 | 95 | 1010.4 |
| 20260510000555 | 20 | 52 | 0.0 | 3.2 | 0.05 | 1.91 | 1.75 | 95 | 1010.4 |
| 20260510000118 | 20 | 83 | 1.6 | 9.7 | 0.05 | 1.91 | 1.75 | 95 | 1010.6 |
| 20260509235554 | 20 | 12 | 1.6 | 9.7 | 0.05 | 1.93 | 1.75 | 95 | 1010.6 |
| 20260509235054 | 20 | 44 | 6.4 | 12.9 | 0.05 | 1.93 | 1.75 | 94 | 1010.4 |
| 20260509234554 | 20 | 238 | 3.2 | 12.9 | 0.05 | 1.93 | 1.75 | 95 | 1009.4 |
| 20260509234053 | 20 | 173 | 1.6 | 14.5 | 0.05 | 1.93 | 1.73 | 95 | 1009.3 |
| 20260509233553 | 20 | 161 | 6.4 | 14.5 | 0.05 | 1.93 | 1.73 | 95 | 1009.4 |
| 20260509233054 | 20 | 139 | 1.6 | 6.4 | 0.05 | 1.93 | 1.73 | 95 | 1009.7 |
| 20260509232553 | 20 | 193 | 1.6 | 6.4 | 0.03 | 1.91 | 1.70 | 94 | 1009.9 |
| 20260509232055 | 20 | 97 | 0.0 | 6.4 | 0.03 | 1.91 | 1.70 | 94 | 1010.0 |
| 20260509231556 | 20 | 165 | 1.6 | 6.4 | 0.03 | 1.91 | 1.70 | 94 | 1010.2 |
| 20260509231053 | 20 | 94 | 0.0 | 3.2 | 0.03 | 1.91 | 1.70 | 94 | 1010.2 |
| 20260509230553 | 20 | 94 | 0.0 | 3.2 | 0.05 | 1.91 | 1.70 | 94 | 1010.3 |
| 20260509230057 | 21 | 94 | 0.0 | 3.2 | 0.03 | 1.88 | 1.68 | 94 | 1010.4 |
| 20260509225552 | 21 | 94 | 0.0 | 3.2 | 0.03 | 1.93 | 1.68 | 94 | 1010.5 |
| 20260509225052 | 21 | 94 | 0.0 | 3.2 | 0.03 | 1.93 | 1.68 | 94 | 1010.7 |
| 20260509224552 | 21 | 94 | 0.0 | 1.6 | 0.03 | 1.93 | 1.68 | 94 | 1010.7 |
| 20260509224053 | 21 | 94 | 0.0 | 3.2 | 0.03 | 1.93 | 1.68 | 94 | 1010.6 |
| 20260509223553 | 21 | 94 | 0.0 | 3.2 | 0.03 | 1.93 | 1.68 | 94 | 1010.7 |
| 20260509223100 | 20 | 94 | 0.0 | 3.2 | 0.03 | 1.93 | 1.68 | 93 | 1010.7 |
| 20260509222552 | 21 | 94 | 0.0 | 3.2 | 0.03 | 1.93 | 1.68 | 93 | 1010.6 |
| 20260509222051 | 21 | 94 | 0.0 | 3.2 | 0.03 | 1.93 | 1.68 | 93 | 1010.3 |
| 20260509221559 | 21 | 94 | 0.0 | 3.2 | 0.03 | 1.93 | 1.68 | 93 | 1010.3 |
| 20260509221052 | 21 | 94 | 0.0 | 3.2 | 0.03 | 1.93 | 1.68 | 93 | 1010.3 |
| 20260509220551 | 21 | 94 | 0.0 | 3.2 | 0.00 | 1.91 | 1.65 | 93 | 1010.1 |
| 20260509220050 | 21 | 5 | 0.0 | 3.2 | 0.00 | 1.91 | 1.65 | 93 | 1010.2 |
| 20260509215551 | 21 | 5 | 1.6 | 4.8 | 0.00 | 2.03 | 1.65 | 93 | 1010.5 |
| 20260509215151 | 21 | 5 | 1.6 | 4.8 | 0.00 | 2.03 | 1.65 | 93 | 1010.3 |
| 20260509214600 | 21 | 5 | 1.6 | 4.8 | 0.00 | 2.03 | 1.65 | 93 | 1010.6 |
| 20260509214050 | 21 | 321 | 0.0 | 4.8 | 0.00 | 2.03 | 1.65 | 93 | 1010.4 |
| 20260509213550 | 21 | 348 | 1.6 | 4.8 | 0.00 | 2.03 | 1.65 | 93 | 1010.2 |
| 20260509213050 | 21 | 335 | 1.6 | 4.8 | 0.00 | 2.03 | 1.65 | 92 | 1010.1 |
| 20260509212549 | 21 | 170 | 0.0 | 4.8 | 0.00 | 2.03 | 1.65 | 92 | 1009.8 |
| 20260509212049 | 21 | 169 | 0.0 | 3.2 | 0.00 | 2.03 | 1.65 | 92 | 1009.8 |
| 20260509211550 | 21 | 211 | 0.0 | 4.8 | 0.00 | 2.03 | 1.65 | 92 | 1010.1 |
| 20260509211049 | 21 | 188 | 0.0 | 4.8 | 0.00 | 2.03 | 1.65 | 92 | 1010.0 |
| 20260509210549 | 21 | 63 | 3.2 | 9.7 | 0.00 | 2.03 | 1.65 | 91 | 1010.3 |
| 20260509210050 | 21 | 107 | 4.8 | 9.7 | 0.00 | 2.03 | 1.65 | 91 | 1010.0 |
| 20260509205548 | 21 | 290 | 1.6 | 3.2 | 0.00 | 2.03 | 1.65 | 91 | 1010.5 |
| 20260509205047 | 21 | 290 | 0.0 | 3.2 | 0.00 | 2.03 | 1.65 | 90 | 1010.3 |
| 20260509204548 | 21 | 290 | 0.0 | 3.2 | 0.00 | 2.03 | 1.65 | 90 | 1010.3 |
| 20260509204047 | 21 | 149 | 0.0 | 3.2 | 0.00 | 2.03 | 1.65 | 90 | 1010.2 |
| 20260509203548 | 21 | 277 | 0.0 | 4.8 | 0.00 | 2.03 | 1.65 | 90 | 1010.5 |
| 20260509203047 | 21 | 332 | 0.0 | 4.8 | 0.00 | 2.03 | 1.65 | 90 | 1010.5 |
| 20260509202547 | 21 | 5 | 0.0 | 4.8 | 0.00 | 2.03 | 1.65 | 91 | 1010.0 |
| 20260509202047 | 21 | 355 | 0.0 | 4.8 | 0.00 | 2.03 | 1.65 | 89 | 1010.0 |
| 20260509201547 | 21 | 355 | 1.6 | 4.8 | 0.00 | 2.03 | 1.65 | 88 | 1010.1 |
| 20260509201046 | 21 | 350 | 0.0 | 4.8 | 0.00 | 2.03 | 1.65 | 90 | 1009.9 |
| 20260509200546 | 21 | 9 | 1.6 | 4.8 | 0.00 | 2.03 | 1.65 | 89 | 1009.4 |
| 20260509200051 | 21 | 62 | 1.6 | 4.8 | 0.00 | 2.03 | 1.65 | 90 | 1009.2 |
| 20260509195546 | 21 | 268 | 0.0 | 6.4 | 0.00 | 2.03 | 1.65 | 89 | 1008.9 |
| 20260509195045 | 21 | 212 | 1.6 | 11.3 | 0.00 | 2.03 | 1.65 | 89 | 1008.2 |
| 20260509194552 | 21 | 167 | 1.6 | 11.3 | 0.00 | 2.03 | 1.65 | 89 | 1007.9 |
| 20260509194045 | 21 | 154 | 3.2 | 6.4 | 0.00 | 2.03 | 1.65 | 88 | 1007.9 |
| 20260509193544 | 21 | 169 | 1.6 | 4.8 | 0.00 | 2.03 | 1.65 | 89 | 1008.5 |
| 20260509193047 | 21 | 46 | 3.2 | 8.0 | 0.00 | 2.03 | 1.65 | 89 | 1008.8 |
| 20260509192544 | 21 | 267 | 1.6 | 8.0 | 0.00 | 2.03 | 1.65 | 89 | 1008.6 |
| 20260509192045 | 21 | 192 | 3.2 | 9.7 | 0.00 | 2.03 | 1.65 | 89 | 1008.4 |
| 20260509191545 | 21 | 205 | 1.6 | 6.4 | 0.00 | 2.03 | 1.65 | 89 | 1008.5 |
| 20260509191045 | 21 | 194 | 3.2 | 6.4 | 0.00 | 2.03 | 1.65 | 89 | 1008.5 |